Location: *
(51.4660°N, 0.3360°W)
Time: 07:04:32
(UTC+00:00)

Cosmos 2151 Rocket - Pass Details

Date: 19 September 2019
Orbit: 618 x 642 km, 82.5° (Epoch: 21 October)

Event Time Altitude Azimuth Distance (km) Brightness Sun altitude
Rises 18:34:53 0° 185° (S) 2,890 7.0 -5.1°
Reaches altitude 10° 18:37:06 10° 184° (S) 1,986 6.1 -5.4°
Maximum altitude 18:41:29 78° 99° (E) 641 3.5 -6.1°
Drops below altitude 10° 18:45:54 10° 13° (NNE) 1,997 6.2 -6.8°
Sets 18:48:09 0° 12° (NNE) 2,908 7.0 -7.1°
